Year,Month,Day,Hour,Minute,Value (Times are PST for temperature in C)
2012,01,27,00,00,0.10
2012,01,27,00,01,0.10
2012,01,27,00,02,0.10
2012,01,27,00,03,0.10
2012,01,27,00,04,0.00
2012,01,27,00,05,0.00
2012,01,27,00,06,0.00
2012,01,27,00,07,0.00
2012,01,27,00,08,0.00
2012,01,27,00,09,-0.10
2012,01,27,00,10,-0.10
2012,01,27,00,11,-0.10
2012,01,27,00,12,-0.10
2012,01,27,00,13,-0.10
2012,01,27,00,14,-0.10
2012,01,27,00,15,0.00
2012,01,27,00,16,0.00
2012,01,27,00,17,0.00
2012,01,27,00,18,0.00
2012,01,27,00,19,0.00
2012,01,27,00,20,0.00
2012,01,27,00,21,0.00
2012,01,27,00,22,-0.10
2012,01,27,00,23,-0.10
2012,01,27,00,24,-0.10
2012,01,27,00,25,-0.10
2012,01,27,00,26,-0.10
2012,01,27,00,27,0.00
2012,01,27,00,28,0.00
2012,01,27,00,29,0.00
2012,01,27,00,30,0.10
2012,01,27,00,31,0.10
2012,01,27,00,32,0.20
2012,01,27,00,33,0.30
2012,01,27,00,34,0.30
2012,01,27,00,35,0.20
2012,01,27,00,36,0.20
2012,01,27,00,37,0.30
2012,01,27,00,38,0.30
2012,01,27,00,39,0.40
2012,01,27,00,40,0.40
2012,01,27,00,41,0.40
2012,01,27,00,42,0.40
2012,01,27,00,43,0.40
2012,01,27,00,44,0.40
2012,01,27,00,45,0.40
2012,01,27,00,46,0.40
2012,01,27,00,47,0.40
2012,01,27,00,48,0.40
2012,01,27,00,49,0.50
2012,01,27,00,50,0.60
2012,01,27,00,51,0.60
2012,01,27,00,52,0.60
2012,01,27,00,53,0.60
2012,01,27,00,54,0.50
2012,01,27,00,55,0.50
2012,01,27,00,56,0.50
2012,01,27,00,57,0.40
2012,01,27,00,58,0.40
2012,01,27,00,59,0.40
2012,01,27,01,00,0.30
2012,01,27,01,01,0.20
2012,01,27,01,02,0.20
2012,01,27,01,03,0.20
2012,01,27,01,04,0.20
2012,01,27,01,05,0.20
2012,01,27,01,06,0.20
2012,01,27,01,07,0.20
2012,01,27,01,08,0.20
2012,01,27,01,09,0.20
2012,01,27,01,10,0.20
2012,01,27,01,11,0.20
2012,01,27,01,12,0.20
2012,01,27,01,13,0.20
2012,01,27,01,14,0.30
2012,01,27,01,15,0.40
2012,01,27,01,16,0.40
2012,01,27,01,17,0.50
2012,01,27,01,18,0.60
2012,01,27,01,19,0.60
2012,01,27,01,20,0.50
2012,01,27,01,21,0.50
2012,01,27,01,22,0.60
2012,01,27,01,23,0.60
2012,01,27,01,24,0.60
2012,01,27,01,25,0.60
2012,01,27,01,26,0.50
2012,01,27,01,27,0.50
2012,01,27,01,28,0.50
2012,01,27,01,29,0.60
2012,01,27,01,30,0.60
2012,01,27,01,31,0.60
2012,01,27,01,32,0.50
2012,01,27,01,33,0.40
2012,01,27,01,34,0.40
2012,01,27,01,35,0.30
2012,01,27,01,36,0.20
2012,01,27,01,37,0.10
2012,01,27,01,38,0.10
2012,01,27,01,39,0.00
2012,01,27,01,40,-0.10
2012,01,27,01,41,-0.20
2012,01,27,01,42,-0.20
2012,01,27,01,43,-0.30
2012,01,27,01,44,-0.30
2012,01,27,01,45,-0.30
2012,01,27,01,46,-0.10
2012,01,27,01,47,-0.10
2012,01,27,01,48,0.00
2012,01,27,01,49,0.00
2012,01,27,01,50,0.00
2012,01,27,01,51,-0.10
2012,01,27,01,52,0.00
2012,01,27,01,53,0.10
2012,01,27,01,54,0.30
2012,01,27,01,55,0.30
2012,01,27,01,56,0.30
2012,01,27,01,57,0.30
2012,01,27,01,58,0.20
2012,01,27,01,59,0.20
2012,01,27,02,00,0.20
2012,01,27,02,01,0.20
2012,01,27,02,02,0.10
2012,01,27,02,03,0.10
2012,01,27,02,04,0.10
2012,01,27,02,05,0.10
2012,01,27,02,06,0.00
2012,01,27,02,07,0.00
2012,01,27,02,08,-0.10
2012,01,27,02,09,-0.10
2012,01,27,02,10,-0.10
2012,01,27,02,11,0.10
2012,01,27,02,12,0.20
2012,01,27,02,13,0.30
2012,01,27,02,14,0.30
2012,01,27,02,15,0.50
2012,01,27,02,16,0.70
2012,01,27,02,17,0.90
2012,01,27,02,18,1.00
2012,01,27,02,19,1.10
2012,01,27,02,20,1.10
2012,01,27,02,21,1.10
2012,01,27,02,22,1.00
2012,01,27,02,23,0.90
2012,01,27,02,24,0.80
2012,01,27,02,25,0.80
2012,01,27,02,26,0.70
2012,01,27,02,27,0.60
2012,01,27,02,28,0.50
2012,01,27,02,29,0.50
2012,01,27,02,30,0.40
2012,01,27,02,31,0.30
2012,01,27,02,32,0.30
2012,01,27,02,33,0.20
2012,01,27,02,34,0.10
2012,01,27,02,35,0.00
2012,01,27,02,36,-0.10
2012,01,27,02,37,-0.20
2012,01,27,02,38,-0.30
2012,01,27,02,39,-0.40
2012,01,27,02,40,-0.40
2012,01,27,02,41,-0.50
2012,01,27,02,42,-0.60
2012,01,27,02,43,-0.70
2012,01,27,02,44,-0.70
2012,01,27,02,45,-0.80
2012,01,27,02,46,-0.80
2012,01,27,02,47,-0.80
2012,01,27,02,48,-0.80
2012,01,27,02,49,-0.80
2012,01,27,02,50,-0.80
2012,01,27,02,51,-0.80
2012,01,27,02,52,-0.80
2012,01,27,02,53,-0.80
2012,01,27,02,54,-0.90
2012,01,27,02,55,-0.90
2012,01,27,02,56,-0.90
2012,01,27,02,57,-0.90
2012,01,27,02,58,-1.00
2012,01,27,02,59,-1.00
2012,01,27,03,00,-1.10
2012,01,27,03,01,-1.10
2012,01,27,03,02,-1.10
2012,01,27,03,03,-1.10
2012,01,27,03,04,-1.10
2012,01,27,03,05,-1.10
2012,01,27,03,06,-1.10
2012,01,27,03,07,-1.10
2012,01,27,03,08,-1.10
2012,01,27,03,09,-1.00
2012,01,27,03,10,-1.00
2012,01,27,03,11,-1.00
2012,01,27,03,12,-1.00
2012,01,27,03,13,-1.00
2012,01,27,03,14,-1.00
2012,01,27,03,15,-1.00
2012,01,27,03,16,-1.00
2012,01,27,03,17,-1.00
2012,01,27,03,18,-1.00
2012,01,27,03,19,-1.00
2012,01,27,03,20,-1.00
2012,01,27,03,21,-1.10
2012,01,27,03,22,-1.10
2012,01,27,03,23,-1.10
2012,01,27,03,24,-1.10
2012,01,27,03,25,-1.10
2012,01,27,03,26,-1.10
2012,01,27,03,27,-1.20
2012,01,27,03,28,-1.20
2012,01,27,03,29,-1.10
2012,01,27,03,30,-1.10
2012,01,27,03,31,-1.00
2012,01,27,03,32,-1.00
2012,01,27,03,33,-1.10
2012,01,27,03,34,-1.10
2012,01,27,03,35,-1.10
2012,01,27,03,36,-1.10
2012,01,27,03,37,-1.10
2012,01,27,03,38,-1.20
2012,01,27,03,39,-1.20
2012,01,27,03,40,-1.20
2012,01,27,03,41,-1.20
2012,01,27,03,42,-1.20
2012,01,27,03,43,-1.20
2012,01,27,03,44,-1.20
2012,01,27,03,45,-1.20
2012,01,27,03,46,-1.20
2012,01,27,03,47,-1.20
2012,01,27,03,48,-1.20
2012,01,27,03,49,-1.30
2012,01,27,03,50,-1.30
2012,01,27,03,51,-1.30
2012,01,27,03,52,-1.30
2012,01,27,03,53,-1.30
2012,01,27,03,54,-1.30
2012,01,27,03,55,-1.30
2012,01,27,03,56,-1.30
2012,01,27,03,57,-1.30
2012,01,27,03,58,-1.30
2012,01,27,03,59,-1.30
2012,01,27,04,00,-1.30
2012,01,27,04,01,-1.30
2012,01,27,04,02,-1.30
2012,01,27,04,03,-1.30
2012,01,27,04,04,-1.30
2012,01,27,04,05,-1.20
2012,01,27,04,06,-1.20
2012,01,27,04,07,-1.20
2012,01,27,04,08,-1.10
2012,01,27,04,09,-1.10
2012,01,27,04,10,-1.10
2012,01,27,04,11,-1.10
2012,01,27,04,12,-1.10
2012,01,27,04,13,-1.10
2012,01,27,04,14,-1.20
2012,01,27,04,15,-1.20
2012,01,27,04,16,-1.20
2012,01,27,04,17,-1.20
2012,01,27,04,18,-1.20
2012,01,27,04,19,-1.20
2012,01,27,04,20,-1.20
2012,01,27,04,21,-1.20
2012,01,27,04,22,-1.20
2012,01,27,04,23,-1.20
2012,01,27,04,24,-1.20
2012,01,27,04,25,-1.20
2012,01,27,04,26,-1.20
2012,01,27,04,27,-1.20
2012,01,27,04,28,-1.20
2012,01,27,04,29,-1.20
2012,01,27,04,30,-1.20
2012,01,27,04,31,-1.20
2012,01,27,04,32,-1.20
2012,01,27,09,03,3.00
2012,01,27,09,04,3.10
2012,01,27,09,05,3.20
2012,01,27,09,06,3.20
2012,01,27,09,07,3.30
2012,01,27,09,08,3.40
2012,01,27,09,09,3.50
2012,01,27,09,10,3.50
2012,01,27,09,11,3.60
2012,01,27,09,12,3.70
2012,01,27,09,13,3.80
2012,01,27,09,14,3.90
2012,01,27,09,15,3.90
2012,01,27,09,16,4.00
2012,01,27,09,17,4.10
2012,01,27,09,18,4.10
2012,01,27,09,19,4.10
2012,01,27,09,20,4.10
2012,01,27,09,21,4.10
2012,01,27,09,22,4.20
2012,01,27,09,23,4.20
2012,01,27,09,24,4.20
2012,01,27,09,25,4.20
2012,01,27,09,26,4.30
2012,01,27,09,27,4.30
2012,01,27,09,28,4.30
2012,01,27,09,29,4.30
2012,01,27,09,30,4.30
2012,01,27,09,31,4.30
2012,01,27,09,32,4.30
2012,01,27,09,33,4.30
2012,01,27,09,34,4.40
2012,01,27,09,35,4.40
2012,01,27,09,36,4.40
2012,01,27,09,37,4.40
2012,01,27,09,38,4.40
2012,01,27,09,39,4.40
2012,01,27,09,40,4.40
2012,01,27,09,41,4.50
2012,01,27,09,42,4.50
2012,01,27,09,43,4.60
2012,01,27,09,44,4.60
2012,01,27,09,45,4.60
2012,01,27,09,46,4.60
2012,01,27,09,47,4.60
2012,01,27,09,48,4.70
2012,01,27,09,49,4.70
2012,01,27,09,50,4.70
2012,01,27,09,51,4.80
2012,01,27,09,52,4.80
2012,01,27,09,53,4.90
2012,01,27,09,54,4.90
2012,01,27,09,55,5.00
2012,01,27,09,56,5.10
2012,01,27,09,57,5.10
2012,01,27,09,58,5.10
2012,01,27,09,59,5.10
2012,01,27,10,00,5.10
2012,01,27,10,01,5.10
2012,01,27,10,02,5.10
2012,01,27,10,03,5.10
2012,01,27,10,04,5.10
2012,01,27,10,05,5.10
2012,01,27,10,06,5.10
2012,01,27,10,07,5.10
2012,01,27,10,08,5.10
2012,01,27,10,09,5.10
2012,01,27,10,10,5.10
2012,01,27,10,11,5.10
2012,01,27,10,12,5.10
2012,01,27,10,13,5.20
2012,01,27,10,14,5.20
2012,01,27,10,15,5.20
2012,01,27,10,16,5.20
2012,01,27,10,17,5.20
2012,01,27,10,18,5.30
2012,01,27,10,19,5.30
2012,01,27,10,20,5.30
2012,01,27,10,21,5.30
2012,01,27,10,22,5.30
2012,01,27,10,23,5.30
2012,01,27,10,24,5.30
2012,01,27,10,25,5.30
2012,01,27,10,26,5.40
2012,01,27,10,27,5.40
2012,01,27,10,28,5.40
2012,01,27,10,29,5.40
2012,01,27,10,30,5.40
2012,01,27,10,31,5.40
2012,01,27,10,32,5.40
2012,01,27,10,33,5.40
2012,01,27,10,34,5.40
2012,01,27,10,35,5.40
2012,01,27,10,36,5.40
2012,01,27,10,37,5.40
2012,01,27,10,38,5.40
2012,01,27,10,39,5.40
2012,01,27,10,40,5.40
2012,01,27,10,41,5.40
2012,01,27,10,42,5.40
2012,01,27,10,43,5.40
2012,01,27,10,44,5.40
2012,01,27,10,45,5.40
2012,01,27,10,46,5.40
2012,01,27,10,47,5.40
2012,01,27,10,48,5.30
2012,01,27,10,49,5.30
2012,01,27,10,50,5.20
2012,01,27,10,51,5.10
2012,01,27,10,52,5.10
2012,01,27,10,53,5.10
2012,01,27,10,54,5.10
2012,01,27,10,55,5.10
2012,01,27,10,56,5.20
2012,01,27,10,57,5.20
2012,01,27,10,58,5.30
2012,01,27,10,59,5.40
2012,01,27,11,00,5.50
2012,01,27,11,01,5.60
2012,01,27,11,02,5.60
2012,01,27,11,03,5.70
2012,01,27,11,04,5.70
2012,01,27,11,05,5.70
2012,01,27,11,06,5.70
2012,01,27,11,07,5.70
2012,01,27,11,08,5.70
2012,01,27,11,09,5.70
2012,01,27,11,10,5.60
2012,01,27,11,11,5.60
2012,01,27,11,12,5.60
2012,01,27,11,13,5.60
2012,01,27,11,14,5.60
2012,01,27,11,15,5.60
2012,01,27,11,16,5.60
2012,01,27,11,17,5.60
2012,01,27,11,18,5.70
2012,01,27,11,19,5.70
2012,01,27,11,20,5.70
2012,01,27,11,21,5.70
2012,01,27,11,22,5.70
2012,01,27,11,23,5.70
2012,01,27,11,24,5.60
2012,01,27,11,25,5.60
2012,01,27,11,26,5.60
2012,01,27,11,27,5.50
2012,01,27,11,28,5.50
2012,01,27,11,29,5.60
2012,01,27,11,30,5.60
2012,01,27,11,31,5.60
2012,01,27,11,32,5.70
2012,01,27,11,33,5.70
2012,01,27,11,34,5.70
2012,01,27,11,35,5.70
2012,01,27,11,36,5.80
2012,01,27,11,37,5.80
2012,01,27,11,38,5.80
2012,01,27,11,39,5.80
2012,01,27,11,40,5.80
2012,01,27,11,41,5.80
2012,01,27,11,42,5.80
2012,01,27,11,43,5.70
2012,01,27,11,44,5.70
2012,01,27,11,45,5.70
2012,01,27,11,46,5.70
2012,01,27,11,47,5.70
2012,01,27,11,48,5.70
2012,01,27,11,49,5.70
2012,01,27,11,50,5.70
2012,01,27,11,51,5.70
2012,01,27,11,52,5.70
2012,01,27,11,53,5.70
2012,01,27,11,54,5.70
2012,01,27,11,55,5.70
2012,01,27,11,56,5.70
2012,01,27,11,57,5.70
2012,01,27,11,58,5.70
2012,01,27,11,59,5.80
2012,01,27,12,00,5.80
2012,01,27,12,01,5.80
2012,01,27,12,02,5.80
2012,01,27,12,03,5.80
2012,01,27,12,04,5.80
2012,01,27,12,05,5.80
2012,01,27,12,06,5.80
2012,01,27,12,07,5.80
2012,01,27,12,08,5.80
2012,01,27,12,09,5.80
2012,01,27,12,10,5.80
2012,01,27,12,11,5.80
2012,01,27,12,12,5.80
2012,01,27,12,13,5.80
2012,01,27,12,14,5.80
2012,01,27,12,15,5.80
2012,01,27,12,16,5.80
2012,01,27,12,17,5.80
2012,01,27,12,18,5.80
2012,01,27,12,19,5.80
2012,01,27,12,20,5.80
2012,01,27,12,21,5.80
2012,01,27,12,22,5.70
2012,01,27,12,23,5.60
2012,01,27,12,24,5.50
2012,01,27,12,25,5.40
2012,01,27,12,26,5.30
2012,01,27,12,27,5.20
2012,01,27,12,28,5.10
2012,01,27,12,29,5.00
2012,01,27,12,30,5.00
2012,01,27,12,31,4.90
2012,01,27,12,32,4.90
2012,01,27,12,33,4.90
2012,01,27,12,34,4.90
2012,01,27,12,35,4.90
2012,01,27,12,36,5.00
2012,01,27,12,37,5.10
2012,01,27,12,38,5.10
2012,01,27,12,39,5.20
2012,01,27,12,40,5.20
2012,01,27,12,41,5.30
2012,01,27,12,42,5.30
2012,01,27,12,43,5.30
2012,01,27,12,44,5.30
2012,01,27,12,45,5.30
2012,01,27,12,46,5.30
2012,01,27,12,47,5.30
2012,01,27,12,48,5.30
2012,01,27,12,49,5.30
2012,01,27,12,50,5.40
2012,01,27,12,51,5.40
2012,01,27,12,52,5.40
2012,01,27,12,53,5.50
2012,01,27,12,54,5.50
2012,01,27,12,55,5.50
2012,01,27,12,56,5.50
2012,01,27,12,57,5.60
2012,01,27,12,58,5.60
2012,01,27,12,59,5.70
2012,01,27,13,00,5.70
2012,01,27,13,01,5.80
2012,01,27,13,02,5.90
2012,01,27,13,03,5.90
2012,01,27,13,04,6.00
2012,01,27,13,05,6.10
2012,01,27,13,06,6.20
2012,01,27,13,07,6.20
2012,01,27,13,08,6.20
2012,01,27,13,09,6.20
2012,01,27,13,10,6.20
2012,01,27,13,11,6.20
2012,01,27,13,12,6.30
2012,01,27,13,13,6.30
2012,01,27,13,14,6.30
2012,01,27,13,15,6.30
2012,01,27,13,16,6.30
2012,01,27,13,17,6.30
2012,01,27,13,18,6.30
2012,01,27,13,19,6.30
2012,01,27,13,20,6.30
2012,01,27,13,21,6.30
2012,01,27,13,22,6.30
2012,01,27,13,23,6.30
2012,01,27,13,24,6.30
2012,01,27,13,25,6.30
2012,01,27,13,26,6.30
2012,01,27,13,27,6.30
2012,01,27,13,28,6.40
2012,01,27,13,29,6.40
2012,01,27,13,30,6.50
2012,01,27,13,31,6.50
2012,01,27,13,32,6.60
2012,01,27,13,33,6.60
2012,01,27,13,34,6.60
2012,01,27,13,35,6.60
2012,01,27,13,36,6.70
2012,01,27,13,37,6.70
2012,01,27,13,38,6.70
2012,01,27,13,39,6.60
2012,01,27,13,40,6.60
2012,01,27,13,41,6.60
2012,01,27,13,42,6.60
2012,01,27,13,43,6.50
2012,01,27,13,44,6.50
2012,01,27,13,45,6.50
2012,01,27,13,46,6.50
2012,01,27,13,47,6.50
2012,01,27,13,48,6.50
2012,01,27,13,49,6.40
2012,01,27,13,50,6.40
2012,01,27,13,51,6.40
2012,01,27,13,52,6.40
2012,01,27,13,53,6.50
2012,01,27,13,54,6.50
2012,01,27,13,55,6.50
2012,01,27,13,56,6.50
2012,01,27,13,57,6.60
2012,01,27,13,58,6.70
2012,01,27,13,59,6.70
2012,01,27,14,00,6.70
2012,01,27,14,01,6.70
2012,01,27,14,02,6.70
2012,01,27,14,03,6.70
2012,01,27,14,04,6.70
2012,01,27,14,05,6.70
2012,01,27,14,06,6.80
2012,01,27,14,07,6.80
2012,01,27,14,08,6.80
2012,01,27,14,09,6.80
2012,01,27,14,10,6.80
2012,01,27,14,11,6.80
2012,01,27,14,12,6.80
2012,01,27,14,13,6.90
2012,01,27,14,14,6.80
2012,01,27,14,15,6.80
2012,01,27,14,16,6.70
2012,01,27,14,17,6.70
2012,01,27,14,18,6.70
2012,01,27,14,19,6.70
2012,01,27,14,20,6.70
2012,01,27,14,21,6.70
2012,01,27,14,22,6.70
2012,01,27,14,23,6.70
2012,01,27,14,24,6.60
2012,01,27,14,25,6.60
2012,01,27,14,26,6.60
2012,01,27,14,27,6.60
2012,01,27,14,28,6.60
2012,01,27,14,29,6.70
2012,01,27,14,30,6.70
2012,01,27,14,31,6.70
2012,01,27,14,32,6.70
2012,01,27,14,33,6.80
2012,01,27,14,34,6.70
2012,01,27,14,35,6.70
2012,01,27,14,36,6.70
2012,01,27,14,37,6.70
2012,01,27,14,38,6.60
2012,01,27,14,39,6.60
2012,01,27,14,40,6.60
2012,01,27,14,41,6.60
2012,01,27,14,42,6.50
2012,01,27,14,43,6.50
2012,01,27,14,44,6.50
2012,01,27,14,45,6.60
2012,01,27,14,46,6.50
2012,01,27,14,47,6.60
2012,01,27,14,48,6.60
2012,01,27,14,49,6.60
2012,01,27,14,50,6.60
2012,01,27,14,51,6.60
2012,01,27,14,52,6.60
2012,01,27,14,53,6.60
2012,01,27,14,54,6.60
2012,01,27,14,55,6.60
2012,01,27,14,56,6.60
2012,01,27,14,57,6.60
2012,01,27,14,58,6.50
2012,01,27,14,59,6.50
2012,01,27,15,00,6.60
2012,01,27,15,01,6.50
2012,01,27,15,02,6.50
2012,01,27,15,03,6.40
2012,01,27,15,04,6.40
2012,01,27,15,05,6.40
2012,01,27,15,06,6.40
2012,01,27,15,07,6.50
2012,01,27,15,08,6.50
2012,01,27,15,09,6.50
2012,01,27,15,10,6.60
2012,01,27,15,11,6.60
2012,01,27,15,12,6.60
2012,01,27,15,13,6.60
2012,01,27,15,14,6.60
2012,01,27,15,15,6.60
2012,01,27,15,16,6.60
2012,01,27,15,17,6.60
2012,01,27,15,18,6.60
2012,01,27,15,19,6.60
2012,01,27,15,20,6.60
2012,01,27,15,21,6.60
2012,01,27,15,22,6.60
2012,01,27,15,23,6.70
2012,01,27,15,24,6.70
2012,01,27,15,25,6.70
2012,01,27,15,26,6.70
2012,01,27,15,27,6.80
2012,01,27,15,28,6.80
2012,01,27,15,29,6.80
2012,01,27,15,30,6.80
2012,01,27,15,31,6.80
2012,01,27,15,32,6.80
2012,01,27,15,33,6.80
2012,01,27,15,34,6.80
2012,01,27,15,35,6.80
2012,01,27,15,36,6.80
2012,01,27,15,37,6.70
2012,01,27,15,38,6.70
2012,01,27,15,39,6.70
2012,01,27,15,40,6.70
2012,01,27,15,41,6.70
2012,01,27,15,42,6.70
2012,01,27,15,43,6.60
2012,01,27,15,44,6.60
2012,01,27,15,45,6.50
2012,01,27,15,46,6.50
2012,01,27,15,47,6.50
2012,01,27,15,48,6.40
2012,01,27,15,49,6.40
2012,01,27,15,50,6.40
2012,01,27,15,51,6.40
2012,01,27,15,52,6.40
2012,01,27,15,53,6.40
2012,01,27,15,54,6.30
2012,01,27,15,55,6.30
2012,01,27,15,56,6.30
2012,01,27,15,57,6.30
2012,01,27,15,58,6.30
2012,01,27,15,59,6.30
2012,01,27,16,00,6.20
2012,01,27,16,01,6.20
2012,01,27,16,02,6.20
2012,01,27,16,03,6.10
2012,01,27,16,04,6.10
2012,01,27,16,05,6.00
2012,01,27,16,06,6.00
2012,01,27,16,07,5.90
2012,01,27,16,08,5.90
2012,01,27,16,09,5.90
2012,01,27,16,10,5.90
2012,01,27,16,11,5.90
2012,01,27,16,12,5.90
2012,01,27,16,13,5.90
2012,01,27,16,14,5.90
2012,01,27,16,15,5.80
2012,01,27,16,16,5.80
2012,01,27,16,17,5.80
2012,01,27,16,18,5.80
2012,01,27,16,19,5.70
2012,01,27,16,20,5.70
2012,01,27,16,21,5.70
2012,01,27,16,22,5.60
2012,01,27,16,23,5.60
2012,01,27,16,24,5.60
2012,01,27,16,25,5.50
2012,01,27,16,26,5.50
2012,01,27,16,27,5.40
2012,01,27,16,28,5.40
2012,01,27,16,29,5.40
2012,01,27,16,30,5.40
2012,01,27,16,31,5.40
2012,01,27,16,32,5.40
2012,01,27,16,33,5.30
2012,01,27,16,34,5.30
2012,01,27,16,35,5.30
2012,01,27,16,36,5.30
2012,01,27,16,37,5.20
2012,01,27,16,38,5.20
2012,01,27,16,39,5.20
2012,01,27,16,40,5.10
2012,01,27,16,41,5.10
2012,01,27,16,42,5.00
2012,01,27,16,43,5.00
2012,01,27,16,44,4.90
2012,01,27,16,45,4.90
2012,01,27,16,46,4.90
2012,01,27,16,47,4.80
2012,01,27,16,48,4.80
2012,01,27,16,49,4.80
2012,01,27,16,50,4.80
2012,01,27,16,51,4.70
2012,01,27,16,52,4.70
2012,01,27,16,53,4.70
2012,01,27,16,54,4.70
2012,01,27,16,55,4.60
2012,01,27,16,56,4.60
2012,01,27,16,57,4.60
2012,01,27,16,58,4.60
2012,01,27,16,59,4.60
2012,01,27,17,00,4.60
2012,01,27,17,01,4.60
2012,01,27,17,02,4.50
2012,01,27,17,03,4.50
2012,01,27,17,04,4.50
2012,01,27,17,05,4.40
2012,01,27,17,06,4.40
2012,01,27,17,07,4.40
2012,01,27,17,08,4.30
2012,01,27,17,09,4.30
2012,01,27,17,10,4.30
2012,01,27,17,11,4.30
2012,01,27,17,12,4.20
2012,01,27,17,13,4.20
2012,01,27,17,14,4.20
2012,01,27,17,15,4.20
2012,01,27,17,16,4.20
2012,01,27,17,17,4.30
2012,01,27,17,18,4.30
2012,01,27,17,19,4.30
2012,01,27,17,20,4.30
2012,01,27,17,21,4.30
2012,01,27,17,22,4.30
2012,01,27,17,23,4.30
2012,01,27,17,24,4.20
2012,01,27,17,25,4.20
2012,01,27,17,26,4.20
2012,01,27,17,27,4.10
2012,01,27,17,28,4.10
2012,01,27,17,29,4.00
2012,01,27,17,30,3.90
2012,01,27,17,31,3.80
2012,01,27,17,32,3.80
2012,01,27,17,33,3.70
2012,01,27,17,34,3.70
2012,01,27,17,35,3.60
2012,01,27,17,36,3.50
2012,01,27,17,37,3.50
2012,01,27,17,38,3.40
2012,01,27,17,39,3.40
2012,01,27,17,40,3.40
2012,01,27,17,41,3.30
2012,01,27,17,42,3.30
2012,01,27,17,43,3.30
2012,01,27,17,44,3.30
2012,01,27,17,45,3.30
2012,01,27,17,46,3.30
2012,01,27,17,47,3.30
2012,01,27,17,48,3.30
2012,01,27,17,49,3.30
2012,01,27,17,50,3.20
2012,01,27,17,51,3.20
2012,01,27,17,52,3.20
2012,01,27,17,53,3.20
2012,01,27,17,54,3.10
2012,01,27,17,55,3.10
2012,01,27,17,56,3.00
2012,01,27,17,57,3.00
2012,01,27,17,58,2.90
2012,01,27,17,59,2.90
2012,01,27,18,00,2.90
2012,01,27,18,01,2.80
2012,01,27,18,02,2.80
2012,01,27,18,03,2.80
2012,01,27,18,04,2.70
2012,01,27,18,05,2.70
2012,01,27,18,06,2.70
2012,01,27,18,07,2.70
2012,01,27,18,08,2.70
2012,01,27,18,09,2.70
2012,01,27,18,10,2.70
2012,01,27,18,11,2.70
2012,01,27,18,12,2.70
2012,01,27,18,13,2.70
2012,01,27,18,14,2.70
2012,01,27,18,15,2.70
2012,01,27,18,16,2.70
2012,01,27,18,17,2.70
2012,01,27,18,18,2.70
2012,01,27,18,19,2.70
2012,01,27,18,20,2.70
2012,01,27,18,21,2.70
2012,01,27,18,22,2.80
2012,01,27,18,23,2.80
2012,01,27,18,24,2.70
2012,01,27,18,25,2.70
2012,01,27,18,26,2.70
2012,01,27,18,27,2.70
2012,01,27,18,28,2.70
2012,01,27,18,29,2.70
2012,01,27,18,30,2.70
2012,01,27,18,31,2.70
2012,01,27,18,32,2.70
2012,01,27,18,33,2.70
2012,01,27,18,34,2.70
2012,01,27,18,35,2.70
2012,01,27,18,36,2.70
2012,01,27,18,37,2.60
2012,01,27,18,38,2.60
2012,01,27,18,39,2.60
2012,01,27,18,40,2.60
2012,01,27,18,41,2.60
2012,01,27,18,42,2.60
2012,01,27,18,43,2.60
2012,01,27,18,44,2.50
2012,01,27,18,45,2.50
2012,01,27,18,46,2.50
2012,01,27,18,47,2.50
2012,01,27,18,48,2.40
2012,01,27,18,49,2.40
2012,01,27,18,50,2.40
2012,01,27,18,51,2.40
2012,01,27,18,52,2.40
2012,01,27,18,53,2.40
2012,01,27,18,54,2.40
2012,01,27,18,55,2.40
2012,01,27,18,56,2.40
2012,01,27,18,57,2.30
2012,01,27,18,58,2.30
2012,01,27,18,59,2.30
2012,01,27,19,00,2.40
2012,01,27,19,01,2.40
2012,01,27,19,02,2.40
2012,01,27,19,03,2.50
2012,01,27,19,04,2.50
2012,01,27,19,05,2.50
2012,01,27,19,06,2.60
2012,01,27,19,07,2.60
2012,01,27,19,08,2.60
2012,01,27,19,09,2.60
2012,01,27,19,10,2.60
2012,01,27,19,11,2.60
2012,01,27,19,12,2.60
2012,01,27,19,13,2.60
2012,01,27,19,14,2.50
2012,01,27,19,15,2.50
2012,01,27,19,16,2.40
2012,01,27,19,17,2.40
2012,01,27,19,18,2.40
2012,01,27,19,19,2.30
2012,01,27,19,20,2.30
2012,01,27,19,21,2.30
2012,01,27,19,22,2.30
2012,01,27,19,23,2.20
2012,01,27,19,24,2.20
2012,01,27,19,25,2.20
2012,01,27,19,26,2.20
2012,01,27,19,27,2.20
2012,01,27,19,28,2.30
2012,01,27,19,29,2.30
2012,01,27,19,30,2.30
2012,01,27,19,31,2.40
2012,01,27,19,32,2.40
2012,01,27,19,33,2.50
2012,01,27,19,34,2.60
2012,01,27,19,35,2.60
2012,01,27,19,36,2.60
2012,01,27,19,37,2.60
2012,01,27,19,38,2.50
2012,01,27,19,39,2.50
2012,01,27,19,40,2.50
2012,01,27,19,41,2.40
2012,01,27,19,42,2.40
2012,01,27,19,43,2.30
2012,01,27,19,44,2.30
2012,01,27,19,45,2.20
2012,01,27,19,46,2.20
2012,01,27,19,47,2.10
2012,01,27,19,48,2.10
2012,01,27,19,49,2.10
2012,01,27,19,50,2.00
2012,01,27,19,51,2.00
2012,01,27,19,52,1.90
2012,01,27,19,53,1.90
2012,01,27,19,54,1.80
2012,01,27,19,55,1.80
2012,01,27,19,56,1.80
2012,01,27,19,57,1.80
2012,01,27,19,58,1.80
2012,01,27,19,59,1.80
2012,01,27,20,00,1.80
2012,01,27,20,01,1.70
2012,01,27,20,02,1.70
2012,01,27,20,03,1.70
2012,01,27,20,04,1.80
2012,01,27,20,05,1.80
2012,01,27,20,06,1.90
2012,01,27,20,07,2.00
2012,01,27,20,08,2.00
2012,01,27,20,09,2.10
2012,01,27,20,10,2.10
2012,01,27,20,11,2.10
2012,01,27,20,12,2.10
2012,01,27,20,13,2.10
2012,01,27,20,14,2.10
2012,01,27,20,15,2.10
2012,01,27,20,16,2.10
2012,01,27,20,17,2.10
2012,01,27,20,18,2.10
2012,01,27,20,19,2.10
2012,01,27,20,20,2.10
2012,01,27,20,21,2.10
2012,01,27,20,22,2.10
2012,01,27,20,23,2.10
2012,01,27,20,24,2.10
2012,01,27,20,25,2.10
2012,01,27,20,26,2.10
2012,01,27,20,27,2.10
2012,01,27,20,28,2.20
2012,01,27,20,29,2.30
2012,01,27,20,30,2.40
2012,01,27,20,31,2.50
2012,01,27,20,32,2.60
2012,01,27,20,33,2.60
2012,01,27,20,34,2.70
2012,01,27,20,35,2.80
2012,01,27,20,36,2.80
2012,01,27,20,37,2.80
2012,01,27,20,38,2.80
2012,01,27,20,39,2.80
2012,01,27,20,40,2.80
2012,01,27,20,41,2.80
2012,01,27,20,42,2.70
2012,01,27,20,43,2.60
2012,01,27,20,44,2.50
2012,01,27,20,45,2.40
2012,01,27,20,46,2.30
2012,01,27,20,47,2.20
2012,01,27,20,48,2.10
2012,01,27,20,49,2.10
2012,01,27,20,50,2.10
2012,01,27,20,51,2.10
2012,01,27,20,52,2.00
2012,01,27,20,53,2.10
2012,01,27,20,54,2.10
2012,01,27,20,55,2.00
2012,01,27,20,56,2.00
2012,01,27,20,57,2.00
2012,01,27,20,58,2.10
2012,01,27,20,59,2.10
2012,01,27,21,00,2.10
2012,01,27,21,01,2.10
2012,01,27,21,02,2.10
2012,01,27,21,03,2.20
2012,01,27,21,04,2.20
2012,01,27,21,05,2.20
2012,01,27,21,06,2.30
2012,01,27,21,07,2.30
2012,01,27,21,08,2.40
2012,01,27,21,09,2.40
2012,01,27,21,10,2.40
2012,01,27,21,11,2.40
2012,01,27,21,12,2.40
2012,01,27,21,13,2.40
2012,01,27,21,14,2.50
2012,01,27,21,15,2.50
2012,01,27,21,16,2.60
2012,01,27,21,17,2.60
2012,01,27,21,18,2.70
2012,01,27,21,19,2.70
2012,01,27,21,20,2.70
2012,01,27,21,21,2.80
2012,01,27,21,22,2.80
2012,01,27,21,23,2.80
2012,01,27,21,24,2.80
2012,01,27,21,25,2.80
2012,01,27,21,26,2.80
2012,01,27,21,27,2.80
2012,01,27,21,28,2.80
2012,01,27,21,29,2.80
2012,01,27,21,30,2.80
2012,01,27,21,31,2.80
2012,01,27,21,32,2.80
2012,01,27,21,33,2.80
2012,01,27,21,34,2.80
2012,01,27,21,35,2.80
2012,01,27,21,36,2.80
2012,01,27,21,37,2.80
2012,01,27,21,38,2.90
2012,01,27,21,39,2.90
2012,01,27,21,40,2.90
2012,01,27,21,41,2.90
2012,01,27,21,42,2.90
2012,01,27,21,43,2.90
2012,01,27,21,44,2.90
2012,01,27,21,45,2.90
2012,01,27,21,46,2.90
2012,01,27,21,47,2.90
2012,01,27,21,48,2.90
2012,01,27,21,49,2.90
2012,01,27,21,50,2.90
2012,01,27,21,51,3.00
2012,01,27,21,52,3.00
2012,01,27,21,53,3.10
2012,01,27,21,54,3.10
2012,01,27,21,55,3.10
2012,01,27,21,56,3.10
2012,01,27,21,57,3.10
2012,01,27,21,58,3.10
2012,01,27,21,59,3.20
2012,01,27,22,00,3.20
2012,01,27,22,01,3.20
2012,01,27,22,02,3.20
2012,01,27,22,03,3.20
2012,01,27,22,04,3.20
2012,01,27,22,05,3.10
2012,01,27,22,06,3.10
2012,01,27,22,07,3.10
2012,01,27,22,08,3.00
2012,01,27,22,09,2.90
2012,01,27,22,10,2.90
2012,01,27,22,11,2.70
2012,01,27,22,12,2.70
2012,01,27,22,13,2.60
2012,01,27,22,14,2.50
2012,01,27,22,15,2.40
2012,01,27,22,16,2.40
2012,01,27,22,17,2.30
2012,01,27,22,18,2.30
2012,01,27,22,19,2.20
2012,01,27,22,20,2.20
2012,01,27,22,21,2.20
2012,01,27,22,22,2.20
2012,01,27,22,23,2.10
2012,01,27,22,24,2.10
2012,01,27,22,25,2.10
2012,01,27,22,26,2.10
2012,01,27,22,27,2.00
2012,01,27,22,28,2.00
2012,01,27,22,29,2.00
2012,01,27,22,30,2.00